Time,TemperatureF,DewpointF,PressureIn,WindDirection,WindDirectionDegrees,WindSpeedMPH,WindSpeedGustMPH,Humidity,HourlyPrecipIn,Conditions,Clouds,dailyrainin,SoftwareType,DateUTC
2013-06-25 00:03:00,86.0,54.8,29.09,SSE,162,3.7,12.8,34,0.00,,,0.00,WSDL version 420,2013-06-25 05:03:00,
2013-06-25 00:09:00,86.0,54.4,29.09,South,176,4.7,12.8,34,0.00,,,0.00,WSDL version 420,2013-06-25 05:09:00,
2013-06-25 00:14:00,86.0,54.4,29.09,SW,225,4.1,10.1,34,0.00,,,0.00,WSDL version 420,2013-06-25 05:14:00,
2013-06-25 00:19:00,85.9,54.9,29.09,SSE,151,3.8,8.1,35,0.00,,,0.00,WSDL version 420,2013-06-25 05:19:00,
2013-06-25 00:24:00,85.8,55.0,29.09,South,180,3.2,8.1,35,0.00,,,0.00,WSDL version 420,2013-06-25 05:24:00,
2013-06-25 00:29:00,85.8,55.0,29.09,SSE,161,4.7,8.5,35,0.00,,,0.00,WSDL version 420,2013-06-25 05:29:00,
2013-06-25 00:35:00,85.6,54.8,29.09,South,177,2.9,8.5,35,0.00,,,0.00,WSDL version 420,2013-06-25 05:35:00,
2013-06-25 00:40:00,85.3,55.1,29.09,South,169,3.5,6.5,35,-99.99,,,-99.99,WSDL version 420,2013-06-25 05:40:00,
2013-06-25 00:45:00,85.0,55.1,29.09,SSE,161,1.6,6.5,36,0.00,,,0.00,WSDL version 420,2013-06-25 05:45:00,
2013-06-25 00:50:00,84.8,54.9,29.09,SSE,158,3.6,8.5,36,0.00,,,0.00,WSDL version 420,2013-06-25 05:50:00,
2013-06-25 00:55:00,84.7,54.8,29.09,SSE,163,3.1,8.5,36,0.00,,,0.00,WSDL version 420,2013-06-25 05:55:00,
2013-06-25 01:00:00,84.4,54.5,29.09,SE,132,3.0,7.4,36,0.00,,,0.00,WSDL version 420,2013-06-25 06:00:00,
2013-06-25 01:05:00,84.1,54.9,29.09,SSE,164,2.5,8.1,37,0.00,,,0.00,WSDL version 420,2013-06-25 06:05:00,
2013-06-25 01:10:00,83.8,55.6,29.09,South,180,2.7,8.1,38,0.00,,,0.00,WSDL version 420,2013-06-25 06:10:00,
2013-06-25 01:17:00,83.8,55.8,29.09,SSE,161,3.7,7.6,39,0.00,,,0.00,WSDL version 420,2013-06-25 06:17:00,
2013-06-25 01:22:00,83.7,56.1,29.09,South,171,4.2,8.5,39,-99.99,,,-99.99,WSDL version 420,2013-06-25 06:22:00,
2013-06-25 01:27:00,83.6,56.0,29.09,SSE,165,4.6,8.5,39,0.00,,,0.00,WSDL version 420,2013-06-25 06:27:00,
2013-06-25 01:32:00,83.5,55.9,29.09,South,191,4.0,8.5,39,0.00,,,0.00,WSDL version 420,2013-06-25 06:32:00,
2013-06-25 01:37:00,83.3,56.5,29.09,South,170,4.3,7.8,40,0.00,,,0.00,WSDL version 420,2013-06-25 06:37:00,
2013-06-25 01:42:00,83.1,56.3,29.09,SSE,164,4.3,7.6,40,0.00,,,0.00,WSDL version 420,2013-06-25 06:42:00,
2013-06-25 01:47:00,82.9,56.6,29.09,SE,143,6.5,9.2,41,0.00,,,0.00,WSDL version 420,2013-06-25 06:47:00,
2013-06-25 01:52:00,82.9,56.8,29.06,SSE,164,6.0,9.4,41,0.00,,,0.00,WSDL version 420,2013-06-25 06:52:00,
2013-06-25 01:57:00,82.7,56.6,29.06,South,174,4.3,9.4,41,0.00,,,0.00,WSDL version 420,2013-06-25 06:57:00,
2013-06-25 02:02:00,82.6,57.2,29.06,SSW,193,4.4,9.8,42,0.00,,,0.00,WSDL version 420,2013-06-25 07:02:00,
2013-06-25 02:07:00,82.3,57.3,29.03,SSE,164,4.3,12.3,43,0.00,,,0.00,WSDL version 420,2013-06-25 07:07:00,
2013-06-25 02:12:00,82.1,58.1,29.03,SE,143,4.9,12.3,44,0.00,,,0.00,WSDL version 420,2013-06-25 07:12:00,
2013-06-25 02:17:00,82.0,58.3,29.03,West,278,5.9,9.6,45,0.00,,,0.00,WSDL version 420,2013-06-25 07:17:00,
2013-06-25 02:23:00,81.8,58.4,29.03,South,180,5.0,9.6,45,0.00,,,0.00,WSDL version 420,2013-06-25 07:23:00,
2013-06-25 02:28:00,81.5,58.3,29.03,South,183,5.5,10.3,46,0.00,,,0.00,WSDL version 420,2013-06-25 07:28:00,
2013-06-25 02:33:00,81.3,59.0,29.03,South,183,5.9,11.4,47,0.00,,,0.00,WSDL version 420,2013-06-25 07:33:00,
2013-06-25 02:39:00,81.1,60.4,29.03,South,170,8.0,12.5,50,0.00,,,0.00,WSDL version 420,2013-06-25 07:39:00,
2013-06-25 02:44:00,81.0,61.1,29.03,South,180,7.3,12.5,52,0.00,,,0.00,WSDL version 420,2013-06-25 07:44:00,
2013-06-25 02:51:00,80.8,61.8,29.03,South,188,3.3,14.8,53,0.00,,,0.00,WSDL version 420,2013-06-25 07:51:00,
2013-06-25 02:56:00,80.6,61.9,29.03,SSE,154,7.5,11.0,53,0.00,,,0.00,WSDL version 420,2013-06-25 07:56:00,
2013-06-25 03:01:00,80.5,62.6,29.03,SE,146,5.3,11.0,55,0.00,,,0.00,WSDL version 420,2013-06-25 08:01:00,
2013-06-25 03:06:00,80.4,62.7,29.03,SSE,154,4.0,13.4,55,0.00,,,0.00,WSDL version 420,2013-06-25 08:06:00,
2013-06-25 03:11:00,80.2,63.1,29.03,SSW,195,4.6,13.4,56,0.00,,,0.00,WSDL version 420,2013-06-25 08:11:00,
2013-06-25 03:16:00,80.1,63.2,29.03,SSE,161,5.4,17.7,56,0.00,,,0.00,WSDL version 420,2013-06-25 08:16:00,
2013-06-25 03:22:00,79.8,63.2,29.03,SSE,154,4.3,17.7,57,0.00,,,0.00,WSDL version 420,2013-06-25 08:22:00,
2013-06-25 03:27:00,79.7,63.6,29.03,South,176,6.0,12.1,58,0.00,,,0.00,WSDL version 420,2013-06-25 08:27:00,
2013-06-25 03:32:00,79.5,63.8,29.03,SSW,203,3.8,12.1,59,0.00,,,0.00,WSDL version 420,2013-06-25 08:32:00,
2013-06-25 03:37:00,79.3,63.9,29.03,South,186,4.6,8.7,60,0.00,,,0.00,WSDL version 420,2013-06-25 08:37:00,
2013-06-25 03:42:00,79.3,64.2,29.03,South,185,5.0,10.5,60,0.00,,,0.00,WSDL version 420,2013-06-25 08:42:00,
2013-06-25 03:47:00,79.2,64.4,29.03,SSW,194,6.8,12.5,61,0.00,,,0.00,WSDL version 420,2013-06-25 08:47:00,
2013-06-25 03:52:00,79.1,64.5,29.06,South,176,5.7,12.5,61,0.00,,,0.00,WSDL version 420,2013-06-25 08:52:00,
2013-06-25 03:57:00,78.9,64.3,29.06,SSE,158,5.4,10.5,61,0.00,,,0.00,WSDL version 420,2013-06-25 08:57:00,
2013-06-25 04:02:00,78.7,64.5,29.06,SSE,167,4.3,9.2,62,-99.99,,,-99.99,WSDL version 420,2013-06-25 09:02:00,
2013-06-25 04:08:00,78.5,64.7,29.06,SSE,158,4.2,8.7,63,-99.99,,,-99.99,WSDL version 420,2013-06-25 09:08:00,
2013-06-25 04:26:00,77.9,64.8,29.03,South,171,4.9,8.5,64,0.00,,,0.00,WSDL version 420,2013-06-25 09:26:00,
2013-06-25 04:31:00,77.7,65.0,29.03,South,174,3.0,8.1,65,0.00,,,0.00,WSDL version 420,2013-06-25 09:31:00,
2013-06-25 04:37:00,77.6,64.9,29.03,South,174,2.9,8.1,65,-99.99,,,-99.99,WSDL version 420,2013-06-25 09:37:00,
2013-06-25 04:45:00,77.4,65.1,29.03,South,171,4.2,6.0,66,0.00,,,0.00,WSDL version 420,2013-06-25 09:45:00,
2013-06-25 04:53:00,77.4,65.6,29.03,South,189,3.8,9.6,67,0.00,,,0.00,WSDL version 420,2013-06-25 09:53:00,
2013-06-25 05:00:00,77.2,65.4,29.03,South,174,4.7,9.6,67,0.00,,,0.00,WSDL version 420,2013-06-25 10:00:00,
2013-06-25 05:05:00,77.2,65.4,29.06,SSE,149,5.0,8.5,67,0.00,,,0.00,WSDL version 420,2013-06-25 10:05:00,
2013-06-25 05:13:00,77.2,65.8,29.06,South,191,6.0,8.5,68,0.00,,,0.00,WSDL version 420,2013-06-25 10:13:00,
2013-06-25 05:19:00,77.2,65.8,29.03,SSW,199,4.3,11.9,68,0.00,,,0.00,WSDL version 420,2013-06-25 10:19:00,
2013-06-25 05:24:00,77.2,65.8,29.03,South,173,3.7,11.9,68,0.00,,,0.00,WSDL version 420,2013-06-25 10:24:00,
2013-06-25 05:29:00,77.4,66.0,29.03,South,180,4.3,10.3,68,0.00,,,0.00,WSDL version 420,2013-06-25 10:29:00,
2013-06-25 05:34:00,77.5,66.1,29.03,South,186,5.4,10.3,68,0.00,,,0.00,WSDL version 420,2013-06-25 10:34:00,
2013-06-25 05:39:00,77.5,66.0,29.06,South,189,3.9,11.0,67,0.00,,,0.00,WSDL version 420,2013-06-25 10:39:00,
2013-06-25 05:44:00,77.5,65.7,29.06,South,186,8.2,11.4,67,0.00,,,0.00,WSDL version 420,2013-06-25 10:44:00,
2013-06-25 05:49:00,77.5,65.7,29.06,SW,214,6.9,11.4,67,0.00,,,0.00,WSDL version 420,2013-06-25 10:49:00,
2013-06-25 05:56:00,77.4,65.6,29.06,SSW,207,5.5,11.0,67,0.00,,,0.00,WSDL version 420,2013-06-25 10:56:00,
2013-06-25 06:02:00,77.4,65.6,29.06,South,176,4.7,11.0,67,0.00,,,0.00,WSDL version 420,2013-06-25 11:02:00,
2013-06-25 06:07:00,77.4,65.6,29.06,South,186,4.0,9.4,67,0.00,,,0.00,WSDL version 420,2013-06-25 11:07:00,
2013-06-25 06:16:00,77.0,65.6,29.06,SSW,193,3.6,7.4,68,0.00,,,0.00,WSDL version 420,2013-06-25 11:16:00,
2013-06-25 06:21:00,77.0,65.6,29.06,SSW,212,2.7,7.4,68,0.00,,,0.00,WSDL version 420,2013-06-25 11:21:00,
2013-06-25 06:26:00,77.0,65.6,29.06,South,180,5.0,8.7,68,0.00,,,0.00,WSDL version 420,2013-06-25 11:26:00,
2013-06-25 06:33:00,77.0,65.6,29.06,SSW,198,4.0,8.7,68,0.00,,,0.00,WSDL version 420,2013-06-25 11:33:00,
2013-06-25 06:39:00,77.0,65.6,29.09,SW,214,2.6,6.3,68,0.00,,,0.00,WSDL version 420,2013-06-25 11:39:00,
2013-06-25 06:44:00,77.1,65.8,29.09,South,186,3.7,7.4,68,0.00,,,0.00,WSDL version 420,2013-06-25 11:44:00,
2013-06-25 06:49:00,77.2,65.6,29.09,SW,214,2.9,7.4,67,0.00,,,0.00,WSDL version 420,2013-06-25 11:49:00,
2013-06-25 06:56:00,77.7,65.9,29.09,South,169,3.9,7.8,67,0.00,,,0.00,WSDL version 420,2013-06-25 11:56:00,
2013-06-25 07:01:00,77.8,65.8,29.09,South,177,5.2,7.4,66,0.00,,,0.00,WSDL version 420,2013-06-25 12:01:00,
2013-06-25 07:08:00,78.3,66.0,29.09,South,180,4.6,8.5,66,0.00,,,0.00,WSDL version 420,2013-06-25 12:08:00,
2013-06-25 07:13:00,78.4,65.8,29.09,SSW,210,6.0,12.1,65,0.00,,,0.00,WSDL version 420,2013-06-25 12:13:00,
2013-06-25 07:18:00,78.7,65.7,29.09,South,184,6.4,12.1,64,0.00,,,0.00,WSDL version 420,2013-06-25 12:18:00,
2013-06-25 07:23:00,78.8,65.6,29.09,South,174,4.0,10.3,64,0.00,,,0.00,WSDL version 420,2013-06-25 12:23:00,
2013-06-25 07:30:00,79.3,66.1,29.09,South,188,6.6,10.3,64,0.00,,,0.00,WSDL version 420,2013-06-25 12:30:00,
2013-06-25 07:36:00,80.1,65.9,29.09,SSW,203,7.5,12.1,62,0.00,,,0.00,WSDL version 420,2013-06-25 12:36:00,
2013-06-25 07:42:00,80.2,65.8,29.09,SSE,162,6.8,12.1,62,0.00,,,0.00,WSDL version 420,2013-06-25 12:42:00,
2013-06-25 07:49:00,80.6,65.4,29.09,SSW,198,7.2,10.1,60,0.00,,,0.00,WSDL version 420,2013-06-25 12:49:00,
2013-06-25 07:57:00,80.8,65.6,29.09,SSW,193,4.9,10.3,60,0.00,,,0.00,WSDL version 420,2013-06-25 12:57:00,
2013-06-25 08:07:00,80.2,65.1,29.12,South,189,4.9,12.1,60,0.00,,,0.00,WSDL version 420,2013-06-25 13:07:00,
2013-06-25 08:12:00,80.0,65.5,29.12,South,174,5.5,12.1,62,0.00,,,0.00,WSDL version 420,2013-06-25 13:12:00,
2013-06-25 08:20:00,79.7,66.0,29.12,South,169,4.3,13.4,63,0.00,,,0.00,WSDL version 420,2013-06-25 13:20:00,
2013-06-25 08:28:00,81.0,66.3,29.12,South,180,6.6,13.0,61,0.00,,,0.00,WSDL version 420,2013-06-25 13:28:00,
2013-06-25 08:33:00,81.2,66.1,29.12,SW,215,5.9,14.3,60,0.00,,,0.00,WSDL version 420,2013-06-25 13:33:00,
2013-06-25 08:38:00,82.0,66.4,29.12,SSW,209,5.4,14.3,58,0.00,,,0.00,WSDL version 420,2013-06-25 13:38:00,
2013-06-25 08:43:00,82.2,66.0,29.12,SSW,212,6.9,12.5,58,-99.99,,,-99.99,WSDL version 420,2013-06-25 13:43:00,
2013-06-25 08:48:00,82.6,66.0,29.12,SSW,199,5.4,12.5,57,0.00,,,0.00,WSDL version 420,2013-06-25 13:48:00,
2013-06-25 08:53:00,83.1,65.8,29.12,SSW,203,6.4,11.2,56,0.00,,,0.00,WSDL version 420,2013-06-25 13:53:00,
2013-06-25 08:58:00,83.5,65.4,29.12,SSW,203,7.2,15.4,54,0.00,,,0.00,WSDL version 420,2013-06-25 13:58:00,
2013-06-25 09:03:00,83.6,65.6,29.12,SSW,198,5.7,15.4,55,0.00,,,0.00,WSDL version 420,2013-06-25 14:03:00,
2013-06-25 09:09:00,84.2,65.6,29.15,SSW,210,5.8,11.0,53,0.00,,,0.00,WSDL version 420,2013-06-25 14:09:00,
2013-06-25 09:14:00,84.9,65.0,29.15,SSW,203,5.7,11.0,51,0.00,,,0.00,WSDL version 420,2013-06-25 14:14:00,
2013-06-25 09:19:00,85.4,64.2,29.15,SSW,199,6.6,12.5,49,0.00,,,0.00,WSDL version 420,2013-06-25 14:19:00,
2013-06-25 09:24:00,85.5,63.6,29.12,SW,214,6.3,12.5,48,0.00,,,0.00,WSDL version 420,2013-06-25 14:24:00,
2013-06-25 09:29:00,86.2,63.8,29.12,SSW,193,7.0,14.5,46,0.00,,,0.00,WSDL version 420,2013-06-25 14:29:00,
2013-06-25 09:34:00,86.3,62.3,29.15,SSW,210,9.6,16.6,44,0.00,,,0.00,WSDL version 420,2013-06-25 14:34:00,
2013-06-25 09:39:00,86.4,61.6,29.15,SSW,206,9.8,16.6,43,0.00,,,0.00,WSDL version 420,2013-06-25 14:39:00,
2013-06-25 09:45:00,87.1,61.9,29.15,SSW,203,6.9,13.9,43,0.00,,,0.00,WSDL version 420,2013-06-25 14:45:00,
2013-06-25 09:50:00,86.7,61.1,29.12,SSW,203,9.6,15.2,43,0.00,,,0.00,WSDL version 420,2013-06-25 14:50:00,
2013-06-25 09:55:00,87.0,61.6,29.12,SSW,209,7.8,17.4,43,0.00,,,0.00,WSDL version 420,2013-06-25 14:55:00,
2013-06-25 10:00:00,87.2,60.9,29.12,WSW,239,10.0,17.4,41,0.00,,,0.00,WSDL version 420,2013-06-25 15:00:00,
2013-06-25 10:05:00,87.6,60.9,29.12,South,188,7.7,13.2,40,0.00,,,0.00,WSDL version 420,2013-06-25 15:05:00,
2013-06-25 10:10:00,88.4,61.2,29.12,South,186,7.7,14.1,40,0.00,,,0.00,WSDL version 420,2013-06-25 15:10:00,
2013-06-25 10:15:00,88.6,60.8,29.12,SSW,210,7.1,14.8,39,-99.99,,,-99.99,WSDL version 420,2013-06-25 15:15:00,
2013-06-25 10:20:00,89.3,61.5,29.09,SSW,199,7.4,14.8,39,0.00,,,0.00,WSDL version 420,2013-06-25 15:20:00,
2013-06-25 10:25:00,89.9,61.5,29.09,SSW,206,8.5,14.1,39,0.00,,,0.00,WSDL version 420,2013-06-25 15:25:00,
2013-06-25 10:30:00,90.6,61.3,29.09,SSW,196,5.9,14.1,37,0.00,,,0.00,WSDL version 420,2013-06-25 15:30:00,
2013-06-25 10:35:00,91.0,60.3,29.12,SSW,206,7.8,15.7,36,0.00,,,0.00,WSDL version 420,2013-06-25 15:35:00,
2013-06-25 10:40:00,90.1,59.3,29.12,SSW,193,7.9,15.7,36,0.00,,,0.00,WSDL version 420,2013-06-25 15:40:00,
2013-06-25 10:46:00,89.9,59.8,29.12,SSE,154,7.8,13.0,37,-99.99,,,-99.99,WSDL version 420,2013-06-25 15:46:00,
2013-06-25 10:55:00,91.8,58.6,29.09,SSW,206,6.7,12.3,33,0.00,,,0.00,WSDL version 420,2013-06-25 15:55:00,
2013-06-25 11:02:00,92.1,58.0,29.09,SW,236,10.4,13.0,32,0.00,,,0.00,WSDL version 420,2013-06-25 16:02:00,
2013-06-25 11:08:00,92.2,57.6,29.09,SW,225,9.1,13.0,31,0.00,,,0.00,WSDL version 420,2013-06-25 16:08:00,
2013-06-25 11:13:00,92.7,57.6,29.09,SW,229,8.4,19.5,31,0.00,,,0.00,WSDL version 420,2013-06-25 16:13:00,
2013-06-25 11:18:00,92.5,57.5,29.09,SW,236,10.3,19.5,31,0.00,,,0.00,WSDL version 420,2013-06-25 16:18:00,
2013-06-25 11:24:00,93.1,58.0,29.09,WSW,238,7.3,15.9,31,0.00,,,0.00,WSDL version 420,2013-06-25 16:24:00,
2013-06-25 11:29:00,93.3,57.2,29.09,SW,225,9.1,14.3,30,0.00,,,0.00,WSDL version 420,2013-06-25 16:29:00,
2013-06-25 11:35:00,93.7,57.7,29.06,SW,225,9.2,17.2,30,0.00,,,0.00,WSDL version 420,2013-06-25 16:35:00,
2013-06-25 11:40:00,93.7,57.0,29.06,SW,231,8.0,18.6,30,0.00,,,0.00,WSDL version 420,2013-06-25 16:40:00,
2013-06-25 11:45:00,93.6,56.9,29.06,SW,222,7.8,18.6,29,0.00,,,0.00,WSDL version 420,2013-06-25 16:45:00,
2013-06-25 11:50:00,93.8,56.8,29.09,SSW,208,8.9,15.4,29,0.00,,,0.00,WSDL version 420,2013-06-25 16:50:00,
2013-06-25 11:58:00,94.9,57.2,29.09,SSW,193,6.2,13.0,28,0.00,,,0.00,WSDL version 420,2013-06-25 16:58:00,
2013-06-25 12:03:00,94.6,56.5,29.09,WSW,238,10.8,15.2,28,0.00,,,0.00,WSDL version 420,2013-06-25 17:03:00,
2013-06-25 12:08:00,94.0,56.6,29.06,SW,219,6.1,15.7,29,0.00,,,0.00,WSDL version 420,2013-06-25 17:08:00,
2013-06-25 12:13:00,94.2,57.1,29.06,SSW,203,7.3,15.7,29,-99.99,,,-99.99,WSDL version 420,2013-06-25 17:13:00,
2013-06-25 12:18:00,95.8,57.5,29.06,SSW,203,7.6,14.3,28,0.00,,,0.00,WSDL version 420,2013-06-25 17:18:00,
2013-06-25 12:23:00,96.4,57.4,29.06,SW,225,8.9,14.8,27,0.00,,,0.00,WSDL version 420,2013-06-25 17:23:00,
2013-06-25 12:28:00,96.5,57.1,29.06,SW,228,7.9,14.8,27,0.00,,,0.00,WSDL version 420,2013-06-25 17:28:00,
2013-06-25 12:33:00,96.5,57.1,29.06,SSW,210,9.2,14.3,27,-99.99,,,-99.99,WSDL version 420,2013-06-25 17:33:00,
2013-06-25 12:38:00,96.4,57.0,29.09,South,191,8.9,15.7,27,0.00,,,0.00,WSDL version 420,2013-06-25 17:38:00,
2013-06-25 12:43:00,96.6,56.9,29.09,SW,225,8.0,15.7,26,0.00,,,0.00,WSDL version 420,2013-06-25 17:43:00,
2013-06-25 12:48:00,96.7,57.0,29.09,SW,225,7.8,13.2,27,0.00,,,0.00,WSDL version 420,2013-06-25 17:48:00,
2013-06-25 12:53:00,97.5,56.9,29.06,SW,218,6.6,13.0,26,-99.99,,,-99.99,WSDL version 420,2013-06-25 17:53:00,
2013-06-25 12:59:00,97.9,57.2,29.06,SSW,203,6.1,14.1,26,0.00,,,0.00,WSDL version 420,2013-06-25 17:59:00,
2013-06-25 13:04:00,97.7,57.1,29.06,SSW,203,7.8,14.1,26,0.00,,,0.00,WSDL version 420,2013-06-25 18:04:00,
2013-06-25 13:09:00,97.3,56.7,29.06,SSW,203,7.6,13.6,26,0.00,,,0.00,WSDL version 420,2013-06-25 18:09:00,
2013-06-25 13:14:00,97.7,57.1,29.06,SW,231,7.3,12.1,26,0.00,,,0.00,WSDL version 420,2013-06-25 18:14:00,
2013-06-25 13:19:00,98.5,57.0,29.06,SSW,203,6.2,15.9,25,-99.99,,,-99.99,WSDL version 420,2013-06-25 18:19:00,
2013-06-25 13:24:00,98.4,56.6,29.06,WSW,238,6.7,15.9,25,0.00,,,0.00,WSDL version 420,2013-06-25 18:24:00,
2013-06-25 13:30:00,98.2,56.4,29.06,SSW,209,8.6,15.2,25,0.00,,,0.00,WSDL version 420,2013-06-25 18:30:00,
2013-06-25 13:35:00,98.3,55.8,29.03,SW,218,7.8,15.2,25,0.00,,,0.00,WSDL version 420,2013-06-25 18:35:00,
2013-06-25 13:40:00,98.5,56.3,29.03,South,191,4.3,14.1,25,0.00,,,0.00,WSDL version 420,2013-06-25 18:40:00,
2013-06-25 13:45:00,99.4,55.1,29.03,South,174,7.4,13.2,22,0.00,,,0.00,WSDL version 420,2013-06-25 18:45:00,
2013-06-25 13:50:00,99.1,53.7,29.00,South,170,8.8,13.9,22,0.00,,,0.00,WSDL version 420,2013-06-25 18:50:00,
2013-06-25 13:55:00,99.3,53.8,29.00,South,191,8.9,13.9,22,0.00,,,0.00,WSDL version 420,2013-06-25 18:55:00,
2013-06-25 14:01:00,98.9,52.2,29.00,SW,219,8.5,18.8,21,0.00,,,0.00,WSDL version 420,2013-06-25 19:01:00,
2013-06-25 14:06:00,99.0,51.7,29.00,SSW,203,10.0,18.8,20,0.00,,,0.00,WSDL version 420,2013-06-25 19:06:00,
2013-06-25 14:11:00,99.0,51.9,29.00,SW,236,6.2,17.0,21,-99.99,,,-99.99,WSDL version 420,2013-06-25 19:11:00,
2013-06-25 14:16:00,100.1,53.2,29.00,SSW,203,7.6,15.7,21,0.00,,,0.00,WSDL version 420,2013-06-25 19:16:00,
2013-06-25 14:21:00,100.0,51.8,29.03,South,172,6.5,15.7,20,0.00,,,0.00,WSDL version 420,2013-06-25 19:21:00,
2013-06-25 14:26:00,100.3,51.7,29.03,SW,221,4.5,15.4,19,0.00,,,0.00,WSDL version 420,2013-06-25 19:26:00,
2013-06-25 14:31:00,100.6,50.4,29.03,South,191,9.6,13.9,18,0.00,,,0.00,WSDL version 420,2013-06-25 19:31:00,
2013-06-25 14:36:00,100.0,50.4,29.03,SSW,198,7.2,13.9,19,0.00,,,0.00,WSDL version 420,2013-06-25 19:36:00,
2013-06-25 14:41:00,100.3,51.0,29.03,SW,214,6.2,15.2,19,0.00,,,0.00,WSDL version 420,2013-06-25 19:41:00,
2013-06-25 14:46:00,100.8,50.2,29.03,SSW,211,8.2,15.2,18,0.00,,,0.00,WSDL version 420,2013-06-25 19:46:00,
2013-06-25 14:51:00,100.8,50.5,29.03,SSE,166,9.6,12.5,19,0.00,,,0.00,WSDL version 420,2013-06-25 19:51:00,
2013-06-25 14:56:00,101.3,51.1,29.03,SSW,206,7.3,12.5,18,0.00,,,0.00,WSDL version 420,2013-06-25 19:56:00,
2013-06-25 15:02:00,101.7,50.3,29.03,SW,218,9.9,18.8,18,0.00,,,0.00,WSDL version 420,2013-06-25 20:02:00,
2013-06-25 15:07:00,101.2,49.9,29.00,SSW,196,7.7,18.8,18,-99.99,,,-99.99,WSDL version 420,2013-06-25 20:07:00,
2013-06-25 15:13:00,101.8,50.4,29.00,SW,221,7.5,13.2,18,0.00,,,0.00,WSDL version 420,2013-06-25 20:13:00,
2013-06-25 15:18:00,101.2,48.7,29.00,SSW,206,8.6,16.8,18,0.00,,,0.00,WSDL version 420,2013-06-25 20:18:00,
2013-06-25 15:23:00,101.4,49.6,29.00,SSW,212,8.2,16.8,17,0.00,,,0.00,WSDL version 420,2013-06-25 20:23:00,
2013-06-25 15:28:00,101.3,48.4,29.00,SSE,155,8.8,15.2,17,0.00,,,0.00,WSDL version 420,2013-06-25 20:28:00,
2013-06-25 15:34:00,101.9,49.0,29.00,SSW,199,7.7,15.2,17,-99.99,,,-99.99,WSDL version 420,2013-06-25 20:34:00,
2013-06-25 15:39:00,101.9,48.9,29.00,SW,225,8.8,17.2,17,0.00,,,0.00,WSDL version 420,2013-06-25 20:39:00,
2013-06-25 15:45:00,101.8,48.8,29.00,SSW,203,7.3,17.2,17,0.00,,,0.00,WSDL version 420,2013-06-25 20:45:00,
2013-06-25 15:50:00,101.4,48.5,29.00,South,176,8.6,15.2,17,0.00,,,0.00,WSDL version 420,2013-06-25 20:50:00,
2013-06-25 15:56:00,101.9,48.5,29.00,SW,217,5.3,15.4,16,0.00,,,0.00,WSDL version 420,2013-06-25 20:56:00,
2013-06-25 16:01:00,102.7,47.9,29.00,SW,235,5.3,11.0,16,0.00,,,0.00,WSDL version 420,2013-06-25 21:01:00,
2013-06-25 16:06:00,103.5,48.6,28.97,South,186,5.0,11.0,16,0.00,,,0.00,WSDL version 420,2013-06-25 21:06:00,
2013-06-25 16:11:00,103.4,48.5,28.97,South,191,6.5,12.1,16,0.00,,,0.00,WSDL version 420,2013-06-25 21:11:00,
2013-06-25 16:16:00,102.9,48.1,28.97,SSW,200,7.4,12.1,16,0.00,,,0.00,WSDL version 420,2013-06-25 21:16:00,
2013-06-25 16:21:00,103.3,48.4,29.00,SW,221,8.1,10.5,16,0.00,,,0.00,WSDL version 420,2013-06-25 21:21:00,
2013-06-25 16:26:00,104.0,47.3,29.00,SSW,199,6.6,10.5,15,0.00,,,0.00,WSDL version 420,2013-06-25 21:26:00,
2013-06-25 16:32:00,103.8,47.1,29.00,SSW,203,3.8,11.9,15,0.00,,,0.00,WSDL version 420,2013-06-25 21:32:00,
2013-06-25 16:38:00,103.8,47.1,28.97,SSW,195,8.2,13.2,15,-99.99,,,-99.99,WSDL version 420,2013-06-25 21:38:00,
2013-06-25 16:43:00,103.5,46.9,28.97,SSW,196,9.2,15.2,15,0.00,,,0.00,WSDL version 420,2013-06-25 21:43:00,
2013-06-25 16:49:00,103.6,47.0,28.97,South,180,6.6,15.2,15,0.00,,,0.00,WSDL version 420,2013-06-25 21:49:00,
2013-06-25 16:54:00,103.5,46.8,28.97,South,186,6.6,12.8,15,0.00,,,0.00,WSDL version 420,2013-06-25 21:54:00,
2013-06-25 16:59:00,103.7,47.0,28.97,SW,215,6.0,12.5,15,0.00,,,0.00,WSDL version 420,2013-06-25 21:59:00,
2013-06-25 17:04:00,103.5,46.8,28.97,SW,214,6.3,14.5,15,0.00,,,0.00,WSDL version 420,2013-06-25 22:04:00,
2013-06-25 17:09:00,103.3,46.7,28.97,South,184,8.7,17.7,15,0.00,,,0.00,WSDL version 420,2013-06-25 22:09:00,
2013-06-25 17:14:00,103.1,46.6,28.97,SSW,193,6.3,17.7,15,0.00,,,0.00,WSDL version 420,2013-06-25 22:14:00,
2013-06-25 17:19:00,103.4,46.8,28.97,SSW,197,7.3,12.3,15,0.00,,,0.00,WSDL version 420,2013-06-25 22:19:00,
2013-06-25 17:24:00,103.6,46.9,28.97,SSW,206,6.6,11.0,15,0.00,,,0.00,WSDL version 420,2013-06-25 22:24:00,
2013-06-25 17:29:00,103.4,46.8,28.97,SSW,197,9.1,14.5,15,0.00,,,0.00,WSDL version 420,2013-06-25 22:29:00,
2013-06-25 17:34:00,103.2,46.6,28.97,South,186,4.4,14.5,15,0.00,,,0.00,WSDL version 420,2013-06-25 22:34:00,
2013-06-25 17:39:00,102.9,46.4,28.97,SSW,203,8.1,12.3,15,0.00,,,0.00,WSDL version 420,2013-06-25 22:39:00,
2013-06-25 17:44:00,102.6,46.2,28.97,SSW,200,8.9,12.1,15,0.00,,,0.00,WSDL version 420,2013-06-25 22:44:00,
2013-06-25 17:52:00,100.9,44.9,28.97,SSW,199,5.1,13.6,15,0.00,,,0.00,WSDL version 420,2013-06-25 22:52:00,
2013-06-25 17:57:00,100.6,44.6,28.97,SSW,193,6.1,13.6,15,0.00,,,0.00,WSDL version 420,2013-06-25 22:57:00,
2013-06-25 18:02:00,100.0,45.8,28.97,SW,234,4.8,8.5,16,0.00,,,0.00,WSDL version 420,2013-06-25 23:02:00,
2013-06-25 18:08:00,99.8,45.7,28.97,SW,225,5.9,11.9,16,0.00,,,0.00,WSDL version 420,2013-06-25 23:08:00,
2013-06-25 18:13:00,100.0,45.8,28.97,SSW,207,6.2,11.9,16,-99.99,,,-99.99,WSDL version 420,2013-06-25 23:13:00,
2013-06-25 18:18:00,99.9,45.7,28.97,SSW,196,5.6,12.1,16,0.00,,,0.00,WSDL version 420,2013-06-25 23:18:00,
2013-06-25 18:23:00,99.5,45.4,28.97,SSW,209,4.6,12.1,16,0.00,,,0.00,WSDL version 420,2013-06-25 23:23:00,
2013-06-25 18:28:00,99.5,45.4,28.97,South,180,4.0,11.0,16,0.00,,,0.00,WSDL version 420,2013-06-25 23:28:00,
2013-06-25 18:33:00,99.7,45.6,28.97,SSW,197,6.1,11.0,16,0.00,,,0.00,WSDL version 420,2013-06-25 23:33:00,
2013-06-25 18:39:00,100.1,45.9,28.97,South,180,6.5,12.3,16,0.00,,,0.00,WSDL version 420,2013-06-25 23:39:00,
2013-06-25 18:44:00,100.4,46.1,28.97,SSE,155,7.0,18.6,16,0.00,,,0.00,WSDL version 420,2013-06-25 23:44:00,
2013-06-25 18:49:00,99.8,45.6,28.97,ESE,118,5.0,18.6,16,0.00,,,0.00,WSDL version 420,2013-06-25 23:49:00,
2013-06-25 18:54:00,98.8,45.3,28.97,South,174,6.3,15.7,17,0.00,,,0.00,WSDL version 420,2013-06-25 23:54:00,
2013-06-25 18:59:00,98.3,46.0,28.97,SSE,160,5.5,15.7,17,0.00,,,0.00,WSDL version 420,2013-06-25 23:59:00,
2013-06-25 19:04:00,97.7,45.6,28.97,SSW,196,6.9,13.0,17,0.00,,,0.00,WSDL version 420,2013-06-26 00:04:00,
2013-06-25 19:09:00,97.3,45.3,28.97,SSE,158,6.7,13.0,17,0.00,,,0.00,WSDL version 420,2013-06-26 00:09:00,
2013-06-25 19:14:00,96.9,44.9,28.97,South,169,5.6,12.8,17,0.00,,,0.00,WSDL version 420,2013-06-26 00:14:00,
2013-06-25 19:19:00,96.5,46.1,28.97,SSE,153,6.3,14.5,18,0.00,,,0.00,WSDL version 420,2013-06-26 00:19:00,
2013-06-25 19:24:00,96.4,46.0,28.97,SSW,196,5.0,14.5,18,0.00,,,0.00,WSDL version 420,2013-06-26 00:24:00,
2013-06-25 19:29:00,96.2,45.9,28.97,South,173,6.6,10.3,18,0.00,,,0.00,WSDL version 420,2013-06-26 00:29:00,
2013-06-25 19:34:00,96.1,45.8,28.97,SE,143,5.7,10.3,18,0.00,,,0.00,WSDL version 420,2013-06-26 00:34:00,
2013-06-25 19:39:00,96.1,45.8,28.97,South,177,5.9,12.8,18,0.00,,,0.00,WSDL version 420,2013-06-26 00:39:00,
2013-06-25 19:44:00,95.9,45.6,28.97,SSE,161,4.0,12.8,18,0.00,,,0.00,WSDL version 420,2013-06-26 00:44:00,
2013-06-25 19:49:00,95.7,45.5,28.97,South,176,5.7,12.3,18,0.00,,,0.00,WSDL version 420,2013-06-26 00:49:00,
2013-06-25 19:55:00,95.5,45.3,28.97,SSE,158,6.0,12.3,18,0.00,,,0.00,WSDL version 420,2013-06-26 00:55:00,
2013-06-25 20:00:00,95.1,46.4,28.97,SSE,161,5.1,10.5,19,0.00,,,0.00,WSDL version 420,2013-06-26 01:00:00,
2013-06-25 20:05:00,94.8,46.8,28.97,SSW,197,5.9,12.8,20,0.00,,,0.00,WSDL version 420,2013-06-26 01:05:00,
2013-06-25 20:10:00,94.4,47.2,28.97,SSE,160,4.2,12.8,20,0.00,,,0.00,WSDL version 420,2013-06-26 01:10:00,
2013-06-25 20:17:00,94.2,47.0,28.97,SSE,154,4.3,12.3,20,0.00,,,0.00,WSDL version 420,2013-06-26 01:17:00,
2013-06-25 20:22:00,93.9,48.1,28.97,SSE,165,6.7,16.1,21,0.00,,,0.00,WSDL version 420,2013-06-26 01:22:00,
2013-06-25 20:27:00,93.7,47.9,28.97,South,174,3.7,16.1,21,-99.99,,,-99.99,WSDL version 420,2013-06-26 01:27:00,
2013-06-25 20:32:00,93.4,47.7,28.97,South,184,5.6,8.7,21,0.00,,,0.00,WSDL version 420,2013-06-26 01:32:00,
2013-06-25 20:37:00,93.2,47.5,28.97,South,186,3.9,8.5,21,0.00,,,0.00,WSDL version 420,2013-06-26 01:37:00,
2013-06-25 20:42:00,92.9,48.5,28.97,SSE,164,3.4,8.1,22,0.00,,,0.00,WSDL version 420,2013-06-26 01:42:00,
2013-06-25 20:47:00,92.7,48.3,28.97,SSW,211,5.1,7.6,22,0.00,,,0.00,WSDL version 420,2013-06-26 01:47:00,
2013-06-25 20:52:00,92.7,48.3,28.97,South,180,5.1,12.1,22,0.00,,,0.00,WSDL version 420,2013-06-26 01:52:00,
2013-06-25 20:57:00,92.7,48.3,28.97,SSE,165,5.0,12.1,22,0.00,,,0.00,WSDL version 420,2013-06-26 01:57:00,
2013-06-25 21:02:00,92.4,48.8,28.97,SSE,167,4.1,10.7,23,0.00,,,0.00,WSDL version 420,2013-06-26 02:02:00,
2013-06-25 21:07:00,92.0,48.9,28.94,SSE,160,3.1,8.5,23,0.00,,,0.00,WSDL version 420,2013-06-26 02:07:00,
2013-06-25 21:12:00,91.8,48.8,28.94,SSW,195,5.6,10.5,23,0.00,,,0.00,WSDL version 420,2013-06-26 02:12:00,
2013-06-25 21:18:00,91.8,48.7,28.94,South,174,4.3,10.5,23,0.00,,,0.00,WSDL version 420,2013-06-26 02:18:00,
2013-06-25 21:23:00,91.4,48.4,28.97,South,180,3.2,8.5,23,0.00,,,0.00,WSDL version 420,2013-06-26 02:23:00,
2013-06-25 21:28:00,91.2,48.2,28.97,South,177,2.1,6.7,23,-99.99,,,-99.99,WSDL version 420,2013-06-26 02:28:00,
2013-06-25 21:34:00,90.9,49.1,28.97,South,186,3.2,6.3,24,0.00,,,0.00,WSDL version 420,2013-06-26 02:34:00,
2013-06-25 21:39:00,90.6,48.9,28.97,SSE,154,2.8,7.6,24,0.00,,,0.00,WSDL version 420,2013-06-26 02:39:00,
2013-06-25 21:44:00,90.4,49.8,28.97,South,171,2.4,8.7,25,0.00,,,0.00,WSDL version 420,2013-06-26 02:44:00,
2013-06-25 21:49:00,90.2,49.7,29.00,South,171,3.8,8.7,25,0.00,,,0.00,WSDL version 420,2013-06-26 02:49:00,
2013-06-25 21:55:00,90.1,50.3,29.00,South,169,4.4,7.6,26,0.00,,,0.00,WSDL version 420,2013-06-26 02:55:00,
2013-06-25 22:00:00,90.0,50.5,29.00,SSE,165,4.7,8.1,26,0.00,,,0.00,WSDL version 420,2013-06-26 03:00:00,
2013-06-25 22:05:00,89.9,50.4,29.00,South,191,4.3,8.1,26,0.00,,,0.00,WSDL version 420,2013-06-26 03:05:00,
2013-06-25 22:11:00,89.8,51.4,29.00,South,180,2.8,6.5,27,0.00,,,0.00,WSDL version 420,2013-06-26 03:11:00,
2013-06-25 22:17:00,89.6,51.4,29.00,South,180,4.3,7.2,28,0.00,,,0.00,WSDL version 420,2013-06-26 03:17:00,
2013-06-25 22:22:00,89.3,52.0,29.00,South,180,3.0,7.2,28,0.00,,,0.00,WSDL version 420,2013-06-26 03:22:00,
2013-06-25 22:27:00,89.2,51.9,29.00,SE,146,3.0,5.6,28,0.00,,,0.00,WSDL version 420,2013-06-26 03:27:00,
2013-06-25 22:32:00,89.2,51.8,29.00,SSE,167,3.1,7.6,28,0.00,,,0.00,WSDL version 420,2013-06-26 03:32:00,
2013-06-25 22:37:00,89.0,51.7,29.03,South,180,3.8,7.6,28,0.00,,,0.00,WSDL version 420,2013-06-26 03:37:00,
2013-06-25 22:42:00,88.9,51.6,29.03,South,169,4.0,8.1,28,0.00,,,0.00,WSDL version 420,2013-06-26 03:42:00,
2013-06-25 22:47:00,88.8,51.5,29.03,SSE,162,6.2,8.1,28,0.00,,,0.00,WSDL version 420,2013-06-26 03:47:00,
2013-06-25 22:52:00,88.9,51.6,29.00,South,185,3.5,8.7,28,0.00,,,0.00,WSDL version 420,2013-06-26 03:52:00,
2013-06-25 22:57:00,88.8,51.5,29.00,SSE,158,2.7,8.7,28,0.00,,,0.00,WSDL version 420,2013-06-26 03:57:00,
2013-06-25 23:01:00,88.7,51.4,29.00,South,171,5.5,7.8,28,0.00,,,0.00,WSDL version 420,2013-06-26 04:01:00,
2013-06-25 23:02:00,88.7,51.4,29.00,South,173,4.8,7.6,28,0.00,,,0.00,WSDL version 420,2013-06-26 04:02:00,
2013-06-25 23:04:00,88.7,51.4,29.00,SSW,205,3.6,7.6,28,0.00,,,0.00,WSDL version 420,2013-06-26 04:04:00,
2013-06-25 23:08:00,88.6,51.3,29.03,SSE,163,4.9,11.9,28,0.00,,,0.00,WSDL version 420,2013-06-26 04:08:00,
2013-06-25 23:10:00,88.5,51.3,29.03,SSE,158,4.8,11.9,28,0.00,,,0.00,WSDL version 420,2013-06-26 04:10:00,
2013-06-25 23:15:00,88.6,51.4,29.03,South,180,4.2,11.9,28,0.00,,,0.00,WSDL version 420,2013-06-26 04:15:00,
2013-06-25 23:20:00,88.6,51.3,29.00,SW,225,5.1,11.0,28,0.00,,,0.00,WSDL version 420,2013-06-26 04:20:00,
2013-06-25 23:25:00,88.7,52.4,29.00,South,186,7.2,12.5,29,0.00,,,0.00,WSDL version 420,2013-06-26 04:25:00,
2013-06-25 23:30:00,88.7,51.4,29.00,South,183,3.6,12.5,28,0.00,,,0.00,WSDL version 420,2013-06-26 04:30:00,
2013-06-25 23:35:00,88.5,51.3,29.00,SSW,193,5.6,11.0,28,0.00,,,0.00,WSDL version 420,2013-06-26 04:35:00,
2013-06-25 23:40:00,88.5,51.3,29.00,South,191,7.6,12.1,28,0.00,,,0.00,WSDL version 420,2013-06-26 04:40:00,
2013-06-25 23:45:00,88.4,51.2,29.00,SSW,199,4.7,12.1,28,0.00,,,0.00,WSDL version 420,2013-06-26 04:45:00,
2013-06-25 23:50:00,88.2,51.9,29.00,SSW,203,3.8,9.6,29,0.00,,,0.00,WSDL version 420,2013-06-26 04:50:00,
2013-06-25 23:55:00,88.0,51.8,29.00,South,180,4.8,12.1,29,-99.99,,,-99.99,WSDL version 420,2013-06-26 04:55:00,